Location: ?ernice
(48.8383°N, 14.3803°E)
Time: 06:42:58
(UTC+00:00)

CZ-2D R/B - Pass Details

Date: 23 May 2024
Orbit: 791 x 843 km, 98.8° (Epoch: 15 June)

Event Time Altitude Azimuth Distance (km) Brightness Sun altitude
Rises 01:50:11 0° 10° (N) 3,414 6.5 -10.8°
Reaches altitude 10° 01:52:37 10° 6° (N) 2,473 5.5 -10.5°
Maximum altitude 01:57:53 49° 293° (WNW) 1,080 2.7 -9.9°
Enters shadow 02:02:43 12° 221° (SW) 2,308 3.8 -9.4°
